• In Hungary
  • List of Countries
  • For 7 days
  • Water Temperature
  • Satellite Maps
  • Weather Map
  • News
  • Weather Widgets
  • user-avatar
    Login

    Hourly Weather Santa Isabel

    Today, 19 February, Monday

    Time Temperature Precipitation Wind Pressure Humidity
    00:00 +23°C° 0 mm 6 mps 757 mmHg 79%
    01:00 +23°C° 0 mm 6 mps 757 mmHg 80%
    02:00 +23°C° 0 mm 6 mps 757 mmHg 81%
    03:00 +23°C° 0.1 mm 6 mps 757 mmHg 81%
    04:00 +23°C° 0.1 mm 6 mps 757 mmHg 81%
    05:00 +23°C° 0.1 mm 6 mps 757 mmHg 81%
    06:00 +23°C° 0 mm 6 mps 757 mmHg 79%
    07:00 +24°C° 0 mm 6 mps 757 mmHg 76%
    08:00 +24°C° 0 mm 6 mps 758 mmHg 74%
    09:00 +27°C° 0 mm 7 mps 758 mmHg 68%
    10:00 +28°C° 0 mm 8 mps 758 mmHg 62%
    11:00 +31°C° 0 mm 8 mps 759 mmHg 56%
    12:00 +31°C° 0 mm 8 mps 758 mmHg 55%
    13:00 +31°C° 0 mm 8 mps 758 mmHg 54%
    14:00 +31°C° 0 mm 8 mps 758 mmHg 53%
    15:00 +31°C° 0 mm 8 mps 757 mmHg 55%
    16:00 +29°C° 0 mm 8 mps 757 mmHg 58%
    17:00 +28°C° 0 mm 8 mps 757 mmHg 60%
    18:00 +27°C° 0 mm 7 mps 757 mmHg 65%
    19:00 +26°C° 0 mm 7 mps 757 mmHg 70%
    20:00 +24°C° 0 mm 6 mps 758 mmHg 75%
    21:00 +24°C° 0 mm 7 mps 758 mmHg 75%
    22:00 +23°C° 0 mm 7 mps 758 mmHg 76%
    23:00 +23°C° 0 mm 7 mps 758 mmHg 77%

    Tomorrow, 20 February, Tuesday

    Time Temperature Precipitation Wind Pressure Humidity
    00:00 +23°C° 0 mm 7 mps 758 mmHg 77%
    01:00 +23°C° 0 mm 7 mps 758 mmHg 78%
    02:00 +23°C° 0 mm 7 mps 757 mmHg 78%
    03:00 +23°C° 0 mm 7 mps 757 mmHg 78%
    04:00 +23°C° 0 mm 7 mps 757 mmHg 78%
    05:00 +23°C° 0 mm 6 mps 757 mmHg 78%
    06:00 +24°C° 0 mm 7 mps 757 mmHg 76%
    07:00 +24°C° 0 mm 7 mps 757 mmHg 75%
    08:00 +26°C° 0 mm 7 mps 758 mmHg 73%
    09:00 +27°C° 0.1 mm 7 mps 758 mmHg 68%
    10:00 +28°C° 0.1 mm 8 mps 759 mmHg 63%
    11:00 +29°C° 0.1 mm 8 mps 759 mmHg 58%
    12:00 +31°C° 0.1 mm 8 mps 759 mmHg 57%
    13:00 +31°C° 0.1 mm 8 mps 758 mmHg 56%
    14:00 +30°C° 0.1 mm 7 mps 758 mmHg 55%
    15:00 +29°C° 0.1 mm 7 mps 758 mmHg 57%
    16:00 +29°C° 0.1 mm 7 mps 757 mmHg 59%
    17:00 +28°C° 0.1 mm 7 mps 757 mmHg 61%
    18:00 +27°C° 0 mm 7 mps 757 mmHg 65%
    19:00 +26°C° 0 mm 6 mps 758 mmHg 70%
    20:00 +24°C° 0 mm 6 mps 758 mmHg 74%
    21:00 +24°C° 0 mm 6 mps 758 mmHg 76%
    22:00 +24°C° 0 mm 6 mps 758 mmHg 77%
    23:00 +24°C° 0 mm 6 mps 759 mmHg 78%

    Day after tomorrow, 21 February, Wednesday

    Time Temperature Precipitation Wind Pressure Humidity
    00:00 +23°C° 0 mm 6 mps 758 mmHg 79%
    01:00 +23°C° 0 mm 6 mps 758 mmHg 80%
    02:00 +23°C° 0 mm 6 mps 758 mmHg 80%
    03:00 +23°C° 0 mm 6 mps 757 mmHg 80%
    04:00 +23°C° 0 mm 6 mps 757 mmHg 80%
    05:00 +23°C° 0 mm 6 mps 757 mmHg 79%
    06:00 +24°C° 0 mm 6 mps 757 mmHg 78%
    07:00 +24°C° 0 mm 7 mps 758 mmHg 76%
    08:00 +26°C° 0 mm 7 mps 758 mmHg 74%
    09:00 +27°C° 0.1 mm 7 mps 759 mmHg 68%
    10:00 +28°C° 0.1 mm 8 mps 759 mmHg 63%
    11:00 +31°C° 0.1 mm 8 mps 759 mmHg 57%
    12:00 +31°C° 0.1 mm 8 mps 759 mmHg 56%
    13:00 +31°C° 0.1 mm 8 mps 758 mmHg 56%
    14:00 +31°C° 0.1 mm 9 mps 758 mmHg 55%
    15:00 +29°C° 0.1 mm 8 mps 758 mmHg 58%
    16:00 +29°C° 0.1 mm 8 mps 757 mmHg 60%
    17:00 +28°C° 0.1 mm 8 mps 757 mmHg 63%
    18:00 +27°C° 0 mm 8 mps 757 mmHg 67%
    19:00 +26°C° 0 mm 7 mps 758 mmHg 72%
    20:00 +24°C° 0 mm 7 mps 758 mmHg 76%
    21:00 +24°C° 0.1 mm 7 mps 758 mmHg 77%
    22:00 +23°C° 0.1 mm 7 mps 759 mmHg 78%
    23:00 +23°C° 0.1 mm 7 mps 759 mmHg 79%

    22 February, Thursday

    Time Temperature Precipitation Wind Pressure Humidity
    00:00 +23°C° 0.1 mm 7 mps 759 mmHg 79%
    01:00 +23°C° 0.1 mm 7 mps 758 mmHg 79%
    02:00 +23°C° 0.1 mm 7 mps 758 mmHg 79%
    03:00 +23°C° 0.1 mm 7 mps 758 mmHg 78%
    04:00 +23°C° 0.1 mm 7 mps 758 mmHg 77%
    05:00 +23°C° 0.1 mm 7 mps 758 mmHg 76%
    06:00 +23°C° 0 mm 7 mps 758 mmHg 73%
    07:00 +23°C° 0 mm 7 mps 758 mmHg 71%
    08:00 +24°C° 0 mm 7 mps 759 mmHg 69%
    09:00 +26°C° 0 mm 8 mps 759 mmHg 64%
    10:00 +28°C° 0 mm 8 mps 759 mmHg 58%
    11:00 +29°C° 0 mm 8 mps 759 mmHg 53%
    12:00 +29°C° 0 mm 8 mps 759 mmHg 52%
    13:00 +29°C° 0 mm 8 mps 758 mmHg 51%
    14:00 +31°C° 0 mm 8 mps 758 mmHg 51%
    15:00 +29°C° 0 mm 8 mps 757 mmHg 53%
    16:00 +28°C° 0 mm 7 mps 757 mmHg 54%
    17:00 +28°C° 0 mm 7 mps 757 mmHg 56%
    18:00 +27°C° 0 mm 7 mps 757 mmHg 61%
    19:00 +24°C° 0 mm 6 mps 757 mmHg 66%
    20:00 +23°C° 0 mm 6 mps 757 mmHg 71%
    21:00 +23°C° 0 mm 6 mps 757 mmHg 73%
    22:00 +23°C° 0 mm 6 mps 758 mmHg 74%
    23:00 +23°C° 0 mm 6 mps 758 mmHg 75%

    23 February, Friday

    Time Temperature Precipitation Wind Pressure Humidity
    00:00 +22°C° 0 mm 6 mps 757 mmHg 76%
    01:00 +22°C° 0 mm 5 mps 757 mmHg 77%
    02:00 +22°C° 0 mm 5 mps 757 mmHg 78%
    03:00 +22°C° 0 mm 5 mps 756 mmHg 79%
    04:00 +22°C° 0 mm 5 mps 756 mmHg 79%
    05:00 +22°C° 0 mm 5 mps 756 mmHg 80%
    06:00 +22°C° 0.1 mm 5 mps 756 mmHg 78%
    07:00 +23°C° 0.1 mm 6 mps 757 mmHg 75%
    08:00 +24°C° 0.1 mm 6 mps 757 mmHg 73%
    09:00 +26°C° 0.1 mm 6 mps 757 mmHg 68%
    10:00 +27°C° 0.1 mm 6 mps 757 mmHg 63%
    11:00 +28°C° 0.1 mm 7 mps 758 mmHg 58%
    12:00 +29°C° 0.2 mm 7 mps 757 mmHg 57%
    13:00 +29°C° 0.2 mm 7 mps 757 mmHg 56%
    14:00 +29°C° 0.2 mm 7 mps 756 mmHg 56%
    15:00 +29°C° 0.1 mm 7 mps 756 mmHg 57%
    16:00 +28°C° 0.1 mm 6 mps 755 mmHg 59%
    17:00 +28°C° 0.1 mm 6 mps 755 mmHg 61%
    18:00 +26°C° 0 mm 6 mps 755 mmHg 66%
    19:00 +24°C° 0 mm 6 mps 755 mmHg 71%
    20:00 +23°C° 0 mm 5 mps 756 mmHg 77%
    21:00 +23°C° 0.1 mm 5 mps 756 mmHg 77%
    22:00 +23°C° 0.1 mm 5 mps 756 mmHg 77%
    23:00 +23°C° 0.1 mm 5 mps 756 mmHg 78%

    24 February, Saturday

    Time Temperature Precipitation Wind Pressure Humidity
    00:00 +22°C° 0.1 mm 5 mps 756 mmHg 78%
    01:00 +22°C° 0.1 mm 5 mps 756 mmHg 79%
    02:00 +22°C° 0.1 mm 5 mps 755 mmHg 80%
    03:00 +22°C° 0.1 mm 5 mps 755 mmHg 80%
    04:00 +22°C° 0.1 mm 5 mps 755 mmHg 80%
    05:00 +22°C° 0.1 mm 5 mps 755 mmHg 80%
    06:00 +23°C° 0.1 mm 5 mps 755 mmHg 78%
    07:00 +23°C° 0.1 mm 5 mps 755 mmHg 75%
    08:00 +24°C° 0.1 mm 6 mps 756 mmHg 73%
    09:00 +26°C° 0 mm 6 mps 756 mmHg 67%
    10:00 +28°C° 0 mm 6 mps 756 mmHg 61%
    11:00 +29°C° 0 mm 7 mps 757 mmHg 55%
    12:00 +29°C° 0 mm 7 mps 756 mmHg 53%
    13:00 +30°C° 0 mm 7 mps 756 mmHg 52%
    14:00 +30°C° 0 mm 7 mps 755 mmHg 51%
    15:00 +29°C° 0 mm 6 mps 755 mmHg 53%
    16:00 +29°C° 0 mm 6 mps 754 mmHg 56%
    17:00 +28°C° 0 mm 6 mps 754 mmHg 58%
    18:00 +27°C° 0 mm 6 mps 754 mmHg 64%
    19:00 +26°C° 0 mm 5 mps 755 mmHg 70%
    20:00 +23°C° 0 mm 5 mps 755 mmHg 76%
    21:00 +23°C° 0.1 mm 5 mps 755 mmHg 77%
    22:00 +23°C° 0.1 mm 5 mps 755 mmHg 79%
    23:00 +23°C° 0.1 mm 5 mps 756 mmHg 80%
    Show more